Location: ??
(35.5052°N, 139.7262°E)
Time: 02:34:12
(UTC+00:00)

ATLAS 5 CENTAUR R/B - Pass Details

Date: 20 June 2021
Orbit: 254 x 12636 km, 20.1° (Epoch: 25 July)

Event Time Altitude Azimuth Distance (km) Brightness Sun altitude
Exits shadow 16:56:59 31° 222° (SW) 3,625 4.3 -23.0°
Maximum altitude 17:03:55 44° 176° (S) 4,551 5.0 -22.3°
Drops below altitude 10° 18:00:20 10° 120° (ESE) 15,356 8.3 -14.8°
Sets 18:28:35 0° 117° (ESE) 17,835 8.8 -10.5°
